Find Starlink 37058

NORAD ID: 68195 Int'l Des: 2026-050 Owner: SPXS Country: US Constellation: starlink operational
LEOCIRCULAR

Live Position

Loading 3D Globe...

About Starlink 37058

Description loading...

Upcoming Passes

Passes for default location (London). Set your location on the main map for personalized predictions.

Altitude History

Loading altitude history...

Two-Line Element Set

1 68195U 26050AE 26120.94771677 .00056503 00000-0 12987-2 0 9999
2 68195 53.1605 24.7557 0001352 82.8405 277.2755 15.42151235 7112
Epoch: Apr 30, 2026 • Age: 10 hours

Current Status

Altitude 441.9 km
Velocity 7.65 km/s
Sub-Earth Point 37.09°N, 73.56°E
Launch Date Mar 14, 2026
Age 0.1 years
Type internet

Technical Details

Classification Payload
Mass 575.00 kg
Dry Mass 530.00 kg
Total Mass 575.00 kg
Length 0.30 m
Diameter 4.10 m
Span 29.00 m
Shape Box + pan
Manufacturer SPXS
Bus Type Starlink V2MO
Phase Status In Orbit
Owner/State SPXS/US

Most Searched